Wind_Speed
24 24 24 24 25 25 25 26 27 28 29 30 31 32 33 34 35 36 37 37 37 38 37 37 37 37 37 36 35 35 34 34 33 33 32 31 30 28 27 25 24 23 22
26 26 26 26 27 27 28 28 29 30 31 32 34 35 36 36 37 38 39 39 40 40 40 40 40 39 39 39 38 37 37 36 35 35 35 34 33 31 29 28 27 26 24
27 27 28 28 29 30 30 30 32 33 34 35 37 38 39 39 40 40 41 42 42 42 43 43 43 42 41 41 41 40 39 39 38 37 37 36 35 34 33 31 30 29 27
29 29 29 30 31 31 32 33 34 36 37 38 40 41 41 42 42 43 43 44 44 44 45 45 45 44 44 43 43 42 41 41 40 40 39 38 38 37 36 34 33 32 31
31 31 31 32 33 34 34 36 37 39 40 41 43 43 44 44 45 45 45 45 46 46 46 46 46 46 46 45 45 44 43 43 42 42 41 40 40 39 38 37 37 35 34
33 33 33 34 35 36 37 39 40 41 43 44 45 45 46 46 46 46 46 47 47 47 48 48 48 47 47 47 46 46 45 45 45 44 44 43 42 41 41 40 39 39 37
35 35 36 36 37 38 40 41 43 44 45 47 47 47 47 47 46 47 47 47 47 48 48 48 48 48 48 48 48 48 48 47 47 46 46 45 44 43 43 42 42 41 40
37 38 38 39 40 41 42 43 45 47 47 48 49 49 48 46 46 47 47 46 47 47 48 49 50 50 51 51 51 51 51 50 49 48 48 47 47 46 45 44 43 43 42
39 39 40 40 42 43 44 46 48 49 49 49 49 49 49 48 47 46 45 46 47 48 50 51 51 52 53 54 53 53 53 52 51 51 50 49 49 48 47 46 45 44 44
41 41 41 42 43 45 47 49 50 50 50 49 49 49 49 49 48 47 45 46 48 50 51 53 54 55 56 56 56 55 55 54 54 53 52 52 50 49 49 48 48 46 44
42 42 42 43 45 47 49 50 50 50 49 49 49 49 49 49 48 48 46 47 49 51 52 54 55 56 57 57 57 57 56 55 54 53 54 54 54 53 50 50 49 48 47
43 44 44 46 48 49 50 49 49 48 48 48 48 48 48 47 47 48 48 47 49 51 52 54 55 55 56 56 56 57 56 56 55 54 54 53 52 54 53 51 49 48 48
45 45 47 48 49 49 49 48 47 47 47 47 47 47 47 47 47 47 48 48 49 49 50 51 52 52 52 52 52 52 52 53 53 54 53 54 54 54 53 52 51 51 49
46 47 49 49 49 48 47 46 46 46 46 45 46 46 46 46 46 47 47 48 47 47 48 47 48 49 49 48 46 46 47 46 47 49 50 51 50 51 51 50 49 48 47
48 49 49 48 47 46 45 45 45 45 44 44 44 44 44 44 45 46 46 46 46 45 44 44 45 45 44 44 43 41 39 41 41 42 46 46 45 46 46 45 48 48 46
48 47 47 46 44 43 43 43 43 44 44 43 43 43 43 43 44 44 43 43 43 43 42 41 40 40 38 37 36 34 32 33 34 35 37 38 39 41 41 40 40 42 42
46 45 44 42 42 41 41 42 42 42 42 42 42 42 42 42 42 41 41 41 41 40 39 37 36 35 33 31 29 28 26 24 24 26 28 29 32 34 35 36 37 38 38
43 41 40 40 39 39 40 40 41 40 40 40 40 40 40 40 39 38 38 38 37 36 35 34 33 31 30 28 26 24 23 22 22 22 24 26 29 31 32 34 36 38 39
39 38 37 37 37 38 38 38 38 38 38 39 39 39 38 37 36 36 35 35 34 33 32 31 30 29 28 27 25 23 22 22 22 23 25 26 28 30 32 34 36 38 39
36 35 35 35 36 36 36 36 36 36 37 37 37 36 35 34 34 33 32 32 31 30 29 29 29 28 27 26 25 24 23 23 24 24 25 27 29 31 33 34 35 37 38
33 33 33 34 34 34 34 34 34 34 35 35 34 33 33 32 31 31 30 30 29 29 29 29 29 29 28 27 26 26 25 26 26 26 27 28 30 31 33 34 36 37 38
30 31 31 31 31 31 31 32 32 33 32 32 32 31 30 30 29 29 29 30 29 29 29 30 30 30 30 29 29 29 29 29 29 30 31 32 33 34 35 37 38 40 42
28 28 28 28 28 29 30 30 30 31 31 30 30 29 28 29 29 30 30 30 31 31 31 32 32 32 32 32 32 32 33 33 33 34 35 36 38 39 40 41 43 44 46
25 25 25 26 26 27 28 29 29 29 29 29 29 28 29 29 30 31 31 32 32 33 34 34 34 34 34 34 35 35 36 37 37 38 39 40 42 43 44 45 47 48 49
22 22 23 24 25 26 27 28 28 28 28 28 29 29 29 30 31 32 32 33 34 34 35 35 36 36 36 37 37 38 38 39 40 42 43 44 45 46 48 49 50 52 53
21 22 23 24 25 26 27 28 28 28 28 29 30 30 31 31 32 33 34 35 35 36 36 37 37 38 38 39 39 40 41 42 43 45 46 47 48 49 50 52 54 55 55
Wind_Direction
291 293 294 296 297 300 302 303 304 305 306 306 306 306 305 304 304 303 302 301 301 299 298 296 295 294 292 289 287 285 283 281 279 277 276 275 275 274 273 268 267 266 264
288 290 292 294 296 298 300 301 302 303 303 304 304 303 303 302 302 301 301 300 300 299 298 297 296 294 292 290 288 285 283 281 279 277 275 273 272 272 270 267 264 263 262
285 288 290 292 294 297 298 299 300 301 301 301 301 301 301 301 300 300 300 299 299 298 298 297 296 294 292 290 288 286 283 281 279 277 274 272 271 270 268 266 263 262 261
283 285 288 290 292 295 296 297 298 298 299 299 299 299 299 299 299 300 300 299 298 298 297 296 295 294 293 291 289 286 283 281 278 276 274 272 270 269 268 266 264 262 261
281 283 285 288 290 292 293 294 295 296 297 297 297 298 298 298 298 299 299 298 297 297 296 296 295 294 292 291 288 286 284 281 278 276 274 272 270 268 267 265 264 263 261
280 282 284 286 288 289 290 292 293 294 295 295 296 297 297 298 298 298 297 297 297 297 296 295 294 293 292 290 288 286 283 280 277 275 273 271 270 268 266 265 263 262 261
279 281 283 284 286 287 289 290 291 293 294 294 295 296 296 297 298 297 297 298 297 297 296 295 294 293 291 290 288 287 284 280 276 274 272 270 269 268 266 265 263 262 261
277 279 281 283 285 287 288 290 291 293 293 294 295 295 296 296 297 298 298 298 298 297 297 295 294 293 291 290 288 286 284 281 276 273 270 269 268 267 266 265 264 263 261
277 279 281 283 285 287 289 291 292 293 293 294 295 296 296 297 296 298 299 299 298 298 298 297 295 293 291 289 287 285 282 279 276 273 269 267 266 264 264 264 263 263 261
277 279 281 284 286 288 290 291 292 293 294 294 295 296 297 298 298 298 298 298 299 299 298 297 296 294 291 289 285 282 279 276 273 271 269 266 264 263 263 263 263 263 263
276 279 281 284 287 289 290 291 292 292 293 294 295 297 298 298 299 299 300 299 299 300 299 298 297 295 292 288 285 281 276 272 271 269 267 265 263 262 263 263 262 264 264
276 279 282 285 288 289 290 290 291 292 293 294 296 297 297 298 299 300 300 300 301 301 300 300 298 296 294 291 286 282 275 271 268 265 263 261 261 260 260 262 263 264 265
276 279 283 285 287 288 289 290 291 292 293 294 296 297 297 298 299 300 300 302 302 303 303 302 301 299 298 296 290 285 278 271 267 264 261 262 260 260 260 261 264 264 264
277 281 284 286 287 288 289 290 291 292 293 295 295 296 297 298 299 300 301 303 304 305 305 305 304 303 301 299 295 290 281 274 270 266 262 262 260 260 262 262 262 264 265
279 282 284 285 287 288 289 290 291 293 294 295 295 296 297 298 299 301 302 303 305 307 307 307 307 308 306 302 299 294 287 278 273 269 263 262 262 263 262 261 260 263 266
280 282 284 285 286 287 289 290 292 293 294 295 296 296 297 298 299 301 303 305 306 308 310 310 311 312 311 308 304 298 293 286 277 272 268 265 263 264 263 265 265 265 267
280 281 283 284 286 287 289 290 292 293 293 294 296 296 297 298 300 301 303 305 307 310 312 315 317 317 317 316 310 304 299 294 282 274 273 272 268 268 268 268 268 267 267
279 280 282 284 285 287 289 291 292 293 293 294 295 296 297 298 300 301 303 305 308 311 314 318 320 320 321 322 320 313 306 300 293 286 284 279 275 273 271 270 269 270 271
277 279 281 283 285 287 289 291 292 293 293 294 295 296 297 298 300 302 304 305 308 312 316 319 322 322 322 323 323 318 311 304 298 292 289 283 280 279 276 273 272 274 274
276 278 280 283 285 287 289 291 292 293 294 295 296 297 297 299 301 302 304 306 308 311 315 318 320 321 321 320 318 317 313 307 302 297 293 288 284 281 280 278 276 274 273
274 276 280 283 285 288 290 291 292 294 295 296 297 298 299 300 301 303 305 307 309 311 313 315 316 317 317 317 316 314 311 307 303 299 295 291 288 286 283 281 279 277 276
273 277 280 283 286 289 290 291 293 295 296 297 298 299 300 301 302 304 305 306 308 310 311 313 314 314 314 313 312 311 308 306 303 300 297 294 291 288 285 283 282 280 279
273 277 280 284 287 289 291 293 294 296 297 298 299 299 300 301 302 303 304 305 306 308 310 311 311 311 311 310 308 307 306 304 302 300 297 295 292 290 288 286 285 283 282
273 278 282 286 289 291 293 295 297 298 298 298 298 299 300 301 302 303 304 305 306 307 308 309 309 309 308 308 306 305 304 302 301 299 297 295 294 292 290 289 287 286 285
273 279 283 287 290 293 295 297 298 298 298 298 298 299 300 301 302 303 304 305 306 306 307 307 307 307 307 306 305 304 303 302 300 299 298 296 295 293 292 290 289 288 287
274 280 285 289 292 294 296 297 298 298 298 298 298 300 301 301 302 304 305 306 306 306 306 307 307 306 306 306 305 305 304 302 301 300 299 297 296 294 293 292 290 289 288
Height
5867 5866 5865 5864 5863 5863 5862 5860 5859 5857 5855 5853 5852 5850 5848 5845 5843 5840 5838 5836 5834 5831 5830 5828 5826 5824 5822 5821 5819 5818 5816 5815 5814 5813 5812 5811 5811 5810 5810 5809 5809 5810 5810
5862 5861 5861 5860 5858 5858 5857 5855 5854 5852 5850 5848 5846 5843 5841 5839 5837 5834 5832 5829 5826 5824 5822 5820 5818 5817 5815 5813 5812 5810 5809 5808 5807 5806 5805 5805 5804 5804 5803 5803 5803 5804 5804
5857 5856 5856 5854 5853 5852 5851 5849 5848 5846 5844 5842 5839 5837 5835 5832 5830 5827 5824 5822 5819 5816 5814 5812 5810 5808 5807 5805 5804 5802 5801 5800 5799 5799 5798 5797 5797 5796 5796 5796 5796 5797 5797
5852 5851 5850 5849 5848 5846 5845 5843 5841 5839 5837 5835 5832 5830 5828 5825 5822 5819 5817 5813 5811 5808 5805 5803 5801 5799 5798 5796 5795 5794 5792 5792 5791 5790 5790 5789 5789 5789 5789 5789 5789 5790 5790
5846 5845 5845 5843 5842 5840 5839 5837 5835 5833 5830 5828 5825 5823 5820 5817 5814 5812 5808 5805 5802 5799 5796 5794 5792 5790 5788 5786 5785 5784 5783 5782 5781 5781 5780 5780 5780 5780 5780 5781 5781 5782 5783
5839 5839 5838 5837 5835 5834 5832 5830 5828 5825 5823 5820 5818 5815 5813 5810 5806 5803 5800 5797 5794 5790 5787 5784 5782 5780 5778 5776 5774 5773 5772 5771 5771 5770 5770 5770 5770 5771 5771 5772 5772 5773 5774
5833 5832 5831 5830 5828 5827 5825 5823 5820 5818 5815 5812 5809 5807 5805 5801 5798 5795 5791 5788 5785 5781 5777 5774 5771 5769 5767 5765 5763 5761 5760 5759 5759 5759 5759 5759 5759 5760 5761 5761 5762 5763 5765
5826 5825 5824 5823 5821 5819 5817 5815 5812 5809 5807 5803 5800 5798 5797 5795 5790 5786 5782 5778 5775 5771 5767 5764 5760 5757 5755 5752 5751 5749 5747 5746 5746 5746 5746 5747 5748 5748 5749 5750 5751 5752 5754
5818 5817 5816 5814 5813 5811 5809 5806 5803 5800 5797 5794 5790 5787 5785 5784 5781 5778 5773 5769 5764 5761 5757 5752 5749 5745 5742 5739 5737 5735 5733 5732 5732 5732 5733 5734 5734 5736 5737 5738 5739 5740 5742
5809 5808 5807 5806 5804 5802 5800 5797 5793 5790 5787 5784 5781 5777 5774 5771 5769 5768 5765 5760 5755 5750 5746 5741 5736 5732 5728 5725 5722 5720 5718 5717 5716 5717 5718 5719 5720 5722 5723 5725 5726 5728 5729
5801 5800 5798 5797 5795 5793 5790 5787 5784 5780 5777 5774 5771 5767 5764 5760 5757 5755 5754 5750 5744 5739 5734 5728 5723 5718 5713 5709 5706 5703 5701 5700 5700 5701 5702 5703 5705 5707 5709 5711 5712 5714 5716
5792 5791 5789 5788 5786 5783 5780 5777 5774 5771 5767 5764 5761 5757 5754 5751 5747 5743 5741 5738 5733 5728 5721 5715 5709 5703 5698 5693 5688 5685 5684 5683 5682 5683 5685 5686 5688 5691 5693 5696 5698 5700 5702
5783 5782 5780 5778 5776 5773 5770 5767 5764 5761 5758 5754 5751 5747 5744 5740 5736 5733 5729 5725 5721 5716 5710 5702 5695 5688 5682 5677 5672 5668 5666 5665 5665 5666 5668 5670 5673 5676 5679 5682 5685 5687 5688
5773 5772 5770 5768 5766 5763 5761 5758 5755 5751 5748 5745 5741 5737 5734 5730 5726 5721 5717 5713 5709 5704 5698 5691 5683 5675 5668 5662 5656 5653 5650 5649 5649 5651 5653 5655 5658 5662 5665 5668 5671 5674 5676
5763 5761 5760 5758 5755 5753 5750 5748 5745 5741 5738 5735 5731 5728 5724 5720 5715 5711 5706 5702 5697 5693 5687 5679 5672 5664 5656 5650 5644 5641 5637 5637 5637 5638 5640 5643 5646 5650 5653 5656 5659 5662 5664
5753 5751 5749 5747 5745 5743 5740 5738 5735 5731 5728 5725 5722 5718 5714 5710 5705 5701 5696 5691 5686 5681 5676 5669 5661 5654 5647 5641 5635 5631 5628 5627 5627 5628 5630 5632 5635 5639 5642 5645 5647 5650 5652
5742 5741 5739 5737 5735 5733 5731 5728 5725 5722 5719 5716 5712 5708 5704 5700 5696 5691 5687 5682 5677 5671 5666 5660 5653 5646 5640 5634 5629 5625 5623 5621 5620 5621 5623 5624 5627 5630 5632 5635 5637 5638 5640
5732 5731 5729 5728 5726 5723 5721 5718 5716 5713 5710 5706 5703 5699 5695 5691 5687 5682 5678 5673 5668 5663 5658 5652 5646 5640 5635 5629 5625 5621 5619 5617 5617 5617 5617 5618 5620 5621 5623 5624 5626 5627 5628
5723 5721 5720 5718 5716 5714 5712 5709 5706 5703 5700 5697 5694 5690 5686 5682 5678 5674 5670 5665 5661 5656 5651 5646 5641 5635 5630 5626 5621 5618 5615 5614 5613 5612 5611 5612 5612 5613 5613 5614 5615 5615 5616
5713 5712 5711 5709 5707 5705 5703 5700 5698 5695 5692 5688 5685 5681 5677 5673 5670 5666 5662 5658 5653 5649 5644 5640 5635 5630 5626 5622 5618 5614 5611 5609 5608 5606 5605 5605 5604 5604 5603 5603 5604 5603 5603
5704 5703 5702 5701 5699 5697 5694 5692 5689 5686 5683 5680 5676 5672 5669 5665 5662 5658 5654 5650 5646 5642 5638 5634 5629 5625 5621 5617 5613 5610 5607 5604 5602 5600 5599 5597 5596 5595 5593 5593 5592 5591 5591
5696 5695 5694 5692 5690 5688 5686 5684 5681 5678 5675 5672 5668 5665 5661 5658 5655 5651 5647 5644 5640 5636 5631 5627 5623 5619 5615 5611 5607 5604 5601 5598 5596 5594 5591 5589 5587 5585 5583 5582 5580 5579 5577
5688 5687 5686 5684 5683 5681 5678 5676 5673 5670 5667 5664 5661 5657 5654 5651 5647 5644 5640 5637 5632 5628 5624 5620 5616 5612 5608 5604 5600 5597 5593 5590 5587 5585 5582 5579 5576 5574 5571 5569 5567 5565 5563
5680 5679 5678 5677 5675 5673 5671 5668 5666 5663 5660 5657 5654 5650 5647 5644 5640 5637 5633 5629 5625 5620 5616 5612 5608 5604 5600 5596 5592 5588 5585 5581 5578 5574 5571 5568 5564 5561 5558 5555 5552 5549 5547
5673 5672 5671 5670 5668 5666 5664 5661 5658 5655 5652 5650 5647 5643 5640 5637 5633 5629 5626 5621 5617 5613 5608 5604 5599 5595 5591 5587 5583 5579 5575 5571 5567 5563 5559 5555 5551 5548 5544 5540 5536 5532 5529
5666 5665 5664 5662 5661 5659 5656 5654 5651 5648 5645 5643 5639 5636 5633 5629 5625 5621 5617 5613 5609 5604 5600 5595 5591 5586 5581 5577 5573 5568 5564 5559 5555 5551 5546 5542 5537 5533 5529 5524 5518 5514 5511